BADR-5

Last updated on Tue Oct 15 2024 00:02:38 GMT+0000 (Coordinated Universal Time)

1 36592U 10025A 24287.69777595 .00000143 00000+0 00000+0 0 9997 2 36592 0.0476 119.8383 0005332 68.5576 111.5531 1.00272112 47089
UTC large
Height (km)
Speed (km/s)
/
Latitude / Longitude
Inclination (degrees)
Orbital Period (minutes)
Azimuth
Elevation
Range (km)
Doppler Factor

Next 0 passes for location: London (51.5072 / 0.1276)

Sorry there are no passes over London.